Погода в Паксе

Лаос     15°11′00″N   105°45′43″E
темп.,
°C
ветер,
м/с
пор.,
м/с
влажн.,
%
обл.,
%
осадки,
мм/ч
давл.,
гПа
погр.,
м
17 июня, чт
чт1701:00+23ююв1296100 7.2 101045
04:00+23юв1195100 3.9 100925
07:00+24ююв1195100 4.1 101049
10:00+27ю228099 0.0 1010537
13:00+30зюз337136 0.5 10081048
16:00+30юз347112 1.8 10071019
19:00+26вюв2285100 6.2 100915
22:00+25юв1188100 0.1 101015
18 июня, пт
пт1801:00+24юв1191100 0.6 100914
04:00+23ююв119285 0.2 101012
07:00+25ююв018787 0.2 1011126
10:00+29юз236931 0.0 10111062
13:00+32юз3557100 0.0 10091802
16:00+32зюз355827 0.0 10071938
19:00+28ююв117033 0.0 100813
22:00+26ююв117592 0.0 101017
19 июня, сб
сб1901:00+25ююв117885 0.0 100818
04:00+25ююв118115 0.0 100814
07:00+26ю117933 0.0 1010120
10:00+30зюз35666 0.0 10101089
13:00+32зюз256085 2.0 10081667
16:00+29юв2279100 0.5 100662
19:00+27ююв118076 0.6 100619
22:00+25ююв128467 0.0 100721
20 июня, вс
вс2001:00+25ю118746 0.0 100618
04:00+24ююв118899 0.0 100614
07:00+26ю128448 0.0 1008134
10:00+30юз456624 0.1 10081073
13:00+33зюз475783 0.4 10052075
16:00+31ююв2273100 0.3 100365
19:00+27юв2280100 0.4 100428
22:00+27ю2283100 0.0 100541
21 июня, пн
пн2101:00+26ю1184100 0.0 100520
04:00+23зюз1191100 1.9 100515
07:00+25ю128663 3.1 1006139
10:00+30юз456977 0.1 10061206
13:00+32юз466099 0.4 10031795
16:00+28юв2481100 0.8 1001110
19:00+27ююв2385100 0.8 100251
22:00+26ю1284100 0.0 100437